Погода в Ербогачёне

Россия / Иркутская область     61°16′29″N   108°00′23″E
темп.,
°C
ветер,
м/с
пор.,
м/с
влажн.,
%
обл.,
%
осадки,
мм/ч
давл.,
гПа
погр.,
м
18 апреля, вс
вс1823:00−13з5128270 0.0 1012567
02:00−14з512877 0.0 1015455
05:00−16з4119139 0.0 1017384
08:00−14з597988 0.0 1019639
11:00−10зсз696477 0.0 10201139
14:00−6зсз5858100 0.0 10201821
17:00−5з4756100 0.1 10201657
20:00−10ююз118772 0.1 102110
19 апреля, пн
пн1923:00−14ю229438 0.0 102211
02:00−14юв2294100 0.0 102231
05:00−11юв2890100 0.0 1020153
08:00−6ююв41074100 0.0 1017373
11:00−2юв5962100 0.0 10151061
14:00+1ююв5960100 0.1 10121830
17:00+1юв61066100 0.1 10091503
20:00−2вюв71468100 0.1 1007898
20 апреля, вт
вт2023:00−4в81772100 0.0 1002845
02:00−6в81870100 0.1 998859
05:00−7в81492100 2.2 996872
08:00−7ююз61189100 2.9 1000826
11:00−6ююз5784100 0.6 1003996
14:00−6ююз5783100 1.4 10061033
17:00−6ююз3687100 0.8 1008898
20:00−7ю2594100 1.4 1009241
21 апреля, ср
ср2123:00−14вюв11955 0.0 101311
02:00−15вюв11975 0.0 101510
05:00−16всв119828 0.0 101712
08:00−8всв24809 0.0 1018248
11:00−3св345918 0.0 10191342
14:00−2ссв3461100 0.1 10211248
17:00−3ссв4567100 0.2 10231079
20:00−6ссв378638 0.3 1026147
22 апреля, чт
чт2223:00−11с229731 0.0 102941
02:00−13с119866 0.0 103118
05:00−15ссв119863 0.0 103410
08:00−7ссв11795 0.0 1035180
11:00−3зсз11595 0.0 1035914
14:00−1зсз335426 0.0 10361276
17:00−1з34565 0.0 10371029
20:00−5ююз2185100 0.0 103812